Location: Austin
(30.3000°N, 97.7500°W)
Time: 23:56:59
(UTC-05:00)

Cosmos 371 Rocket - Pass Details

Date: 06 May 2026
Orbit: 674 x 689 km, 74.0° (Epoch: 13 May)

Event Time Altitude Azimuth Distance (km) Brightness Sun altitude
Rises 21:43:52 0° 336° (NNW) 3,059 7.6 -18.5°
Reaches altitude 10° 21:46:14 10° 331° (NNW) 2,139 6.7 -18.9°
Maximum altitude 21:50:52 48° 258° (WSW) 890 4.1 -19.7°
Enters shadow 21:54:11 18° 190° (S) 1,654 5.0 -20.3°
